カタログに戻る

SHIJIAN 6 03B

SJ-6 03B

運用中科学SSO
NORAD 33409·PAYLOAD·🇨🇳 China

打ち上げ Oct 25, 2008 から Taiyuan Satellite Launch Center

Loading…

次のパス (今後24時間)

TLE

最新Source: Space-Track

元期: Sep 14, 2026, 15:01 UTC

1 33409U 08053B   26257.62582825  .00000312  00000-0  26865-4 0  9992
2 33409  97.8541 279.0044 0020624  98.1110 262.2456 15.04494040976195

AllMySatでSHIJIAN 6 03Bをリアルタイム追跡

Download on the App Store